Location: ???? ????
(31.2831°N, 45.5190°E)
Time: 23:22:36
(UTC+00:00)

Daily predictions for brighter satellites

Satellite Brightness Start Highest point End
(mag) Time Altitude Azimuth Time Altitude Azimuth Time Altitude Azimuth
Nadezhda 1 Rocket 4.3 15:05:58 10° N 15:12:18 80° W 15:18:39 10° S
Cosmos 2297 Rocket 2.3 15:07:35 10° NNW 15:13:16 88° WSW 15:18:54 10° SSE
Gbstr 26 Del rocket 3.7 15:13:07 10° WSW 15:17:04 53° NW 15:21:46 10° NE
CZ-2C R/B 3.3 15:11:22 10° SSE 15:17:10 75° ENE 15:22:55 10° N
Cosmos 2228 Rocket 3.7 15:13:24 10° NNE 15:17:33 35° E 15:21:37 10° SSE
Meteor 2-6 Rocket 4.2 15:12:33 10° N 15:18:14 75° E 15:23:43 10° SSE
Cosmos 1461 4.4 15:15:46 10° SSE 15:19:19 22° ESE 15:22:54 10° ENE
CZ-2C R/B 3.5 15:15:06 10° NE 15:19:51 29° E 15:24:29 10° SSE
CZ-2D R/B 3.2 15:16:54 10° SSE 15:20:40 82° ENE 15:24:28 10° N
Cosmos 2181 Rocket 4.5 15:14:39 10° N 15:20:40 40° E 15:26:36 10° SSE
Cosmos 1331 Rocket 4.0 15:15:50 10° S 15:21:02 63° ESE 15:26:15 10° NNE
CZ-4 R/B 4.4 15:19:58 10° SSE 15:24:04 69° ENE 15:28:13 10° N
SEDSat Delta rocket 3.2 15:21:14 10° W 15:26:14 80° S 15:30:38 10° ESE
Cosmos 292 Rocket 4.3 15:23:03 10° SSW 15:27:44 62° WNW 15:32:27 10° N
Cosmos 1812 2.8 15:27:12 10° N 15:31:02 83° W 15:34:51 10° S
Cosmos 2219 3.8 15:26:49 10° NNW 15:32:20 62° WSW 15:37:51 10° S
Cosmos 1980 Rocket 2.6 15:32:04 10° SSW 15:37:40 70° WNW 15:43:21 10° NNE
YAOGAN 1 2.6 15:34:21 10° SSE 15:38:32 53° ENE 15:42:45 10° N
Cosmos 1689 Rocket 1.8 15:36:00 10° NNE 15:38:53 85° ESE 15:41:44 10° S
Cosmos 1818 3.7 15:33:33 10° NNW 15:38:56 55° ENE 15:44:14 10° SE
Okean-O 2.7 15:34:46 10° SSE 15:39:04 52° ENE 15:43:22 10° N
OAO 3 Copernicus 4.3 15:35:19 10° WNW 15:40:25 86° SSW 15:44:50 14° ESE
Timation 1 Rocket 4.3 15:34:47 10° NNW 15:40:42 62° ENE 15:46:33 10° SSE
Helios 1A Rocket 3.6 15:37:24 10° SE 15:41:01 31° ENE 15:44:37 10° N
Cosmos 220 Rocket 4.4 15:39:14 10° SSW 15:43:21 63° WNW 15:47:33 10° N
Cosmos 1242 Rocket 3.2 15:41:17 10° NNW 15:44:46 57° W 15:48:17 10° S
Cosmos 2322 Rocket 3.1 15:42:48 10° SSE 15:47:14 25° ESE 15:51:02 13° NE
Abrixas rocket 1.4 15:45:01 10° SW 15:47:31 83° NW 15:48:53 23° NE
Cosmos 1302 Rocket 4.0 15:43:58 10° S 15:48:59 54° ESE 15:54:03 10° NNE
Sich 1 3.0 15:45:56 10° S 15:50:16 87° E 15:54:40 10° N
Atlas Centaur 2 3.5 15:45:34 10° W 15:51:33 36° SSW 15:56:22 10° SE
Yuri Rocket 4.2 15:44:19 10° W 15:52:24 69° S 15:56:39 20° ESE
SJ-11-01 4.2 15:51:18 10° SSE 15:55:57 80° ENE 16:00:38 10° N
Cosmos 2082 3.6 15:52:23 10° NNW 15:58:00 89° ENE 16:03:38 10° SSE
Lacrosse 5 rocket 2.3 15:54:43 10° NNW 15:58:33 30° NE 15:59:38 26° ENE
Meteor 1-20 Rocket 4.1 15:54:20 10° S 15:59:44 61° E 16:05:06 10° NNE
Cosmos 44 3.6 15:55:20 10° NNW 16:00:40 53° ENE 16:04:56 15° SE
CZ-4B R/B 4.5 15:57:23 10° SSE 16:01:42 76° ENE 16:06:11 10° N
Cosmos 1633 Rocket 3.0 16:01:50 10° S 16:06:09 60° E 16:10:30 10° NNE
SL-16 R/B 2.3 16:00:57 10° S 16:06:24 50° ESE 16:11:52 10° NNE
Cosmos 1741 Rocket 4.3 16:02:32 10° NNW 16:07:50 72° WSW 16:13:05 10° S
Cosmos 1707 Rocket 3.6 16:05:03 10° N 16:09:21 53° E 16:13:35 10° SSE
Cosmos 2154 Rocket 4.0 16:08:22 10° S 16:14:28 59° E 16:20:33 10° NNE
Nadezhda 3 Rocket 4.3 16:17:14 10° N 16:23:16 44° E 16:27:09 21° SE
Cosmos 2074 Rocket 4.3 16:17:20 10° SSW 16:23:36 71° W 16:29:51 10° N
Cosmos 1610 Rocket 4.3 16:19:36 10° S 16:25:41 73° E 16:31:52 10° N
CZ-4 R/B 3.5 16:22:43 10° SSW 16:25:59 26° W 16:29:15 10° NW
DMSP B5D2-2 4.0 16:23:24 10° NNE 16:28:39 89° WNW 16:33:51 10° SSW
Meteor 1-14 Rocket 4.3 16:24:03 10° SSE 16:29:31 51° E 16:34:54 10° NNE
Cosmos 2263 Rocket 2.3 16:26:45 10° N 16:32:07 48° ENE 16:32:23 47° ENE
Cosmos 1470 Rocket 3.4 16:33:36 10° S 16:38:04 79° E 16:38:41 64° NNE
ARGOS 4.1 16:35:31 10° S 16:40:41 48° W 16:45:56 10° NNW
H-2A R/B 4.0 16:36:09 10° SSW 16:40:50 31° W 16:45:36 10° NW
Cosmos 1295 Rocket 4.4 16:35:04 10° S 16:41:22 83° E 16:47:39 10° N
ERBS 4.3 16:45:23 10° WSW 16:48:08 25° NW 16:48:08 25° NW
MetOp-A 4.0 16:50:52 69° SE 16:51:30 83° ENE 16:56:52 10° N
COSMOS 2455 2.9 16:48:13 10° NNW 16:54:13 74° WSW 16:56:31 39° S
Meteor 1-18 Rocket 4.2 16:49:51 10° N 16:55:28 71° NE 16:55:28 71° NE
Cosmos 1271 Rocket 4.4 16:57:19 10° NNW 17:00:02 31° WNW 17:00:02 31° WNW
Cosmos 962 Rocket 4.3 16:55:03 10° S 17:01:11 84° E 17:07:24 10° N
Cosmos 2360 Rocket 3.6 17:00:20 10° S 17:02:39 26° S 17:02:39 26° S
ATLAS 2A CENTAUR R/B 4.4 16:26:15 10° WSW 17:11:56 59° S 17:14:26 50° SE
Cosmos 2322 Rocket 3.6 17:25:58 10° SW 17:31:01 34° WNW 17:33:02 26° NNW
Lacrosse 5 rocket 4.3 17:34:14 10° WNW 17:35:19 15° W 17:35:19 15° W
